Weather History for KHSP - January, 2010

Change the Weather History Date:

Friday, January 1, 2010

  Actual Average Record
Temperature  
Mean Temperature 22 °F -  
Max Temperature 33 °F 34 °F 53 °F (2007)
Min Temperature 12 °F 21 °F 6 °F (2002)
Degree Days  
Heating Degree Days 42    
Moisture  
Dew Point 24 °F    
Average Humidity 93    
Maximum Humidity 100    
Minimum Humidity 80    
Precipitation  
Precipitation 0.00 in - - ()
Sea Level Pressure  
Sea Level Pressure 29.89 in    
Wind  
Wind Speed 16 mph (WNW)    
Max Wind Speed 24 mph    
Max Gust Speed 33 mph    
Visibility 10 miles    
Events      
Averages and records for this station are not official NWS values.
T = Trace of Precipitation, MM = Missing Value Source: NWS Daily Summary

Daily Weather History Graph

Daily Weather History Graph

Search for Another Location

Airport or City:

Trip Planner

Search our weather history database for the weather conditions in past years. The results will help you decide how hot, cold, wet, or windy it might be!

Date:

Astronomy

Jan. 01, 2010 Rise Set
Actual Time 7:35 AM EST 5:10 PM EST
Civil Twilight 7:05 AM EST 5:40 PM EST
Nautical Twilight 6:33 AM EST 6:13 PM EST
Astronomical Twilight 6:01 AM EST 6:45 PM EST
Moon 6:27 PM EST (1/1) 8:19 AM EST (1/1)
Length of Visible Light 10h 34m
Length of Day
9h 35m
Full, 99% of the Moon is Illuminated
Jan 1
Full
Jan 7
Last Quarter
Jan 15
New
Jan 23
First Quarter
Jan 30
Full

Hourly Weather History & Observations

Time (EST) Temp. Windchill Dew Point Humidity Pressure Visibility Wind Dir Wind Speed Gust Speed Precip Events Conditions
12:00 AM 33.8 °F 23.9 °F 33.8 °F 100% 29.93 in - West 15.0 mph 21.9 mph N/A   Overcast
12:19 AM 33.8 °F 23.2 °F 33.8 °F 100% 29.93 in - West 17.3 mph 20.7 mph N/A   Overcast
12:39 AM 33.8 °F 22.8 °F 33.8 °F 100% 29.92 in - West 18.4 mph 23.0 mph N/A   Overcast
1:01 AM 33.8 °F 23.2 °F 33.8 °F 100% 29.92 in - West 17.3 mph 23.0 mph N/A   Overcast
1:20 AM 32.0 °F 21.2 °F 32.0 °F 100% 29.93 in - West 16.1 mph - N/A   Overcast
1:39 AM 32.0 °F 23.0 °F 32.0 °F 100% 29.92 in - WNW 11.5 mph - N/A   Overcast
1:59 AM 32.0 °F 21.6 °F 32.0 °F 100% 29.92 in - West 15.0 mph 18.4 mph N/A   Overcast
2:21 AM 30.2 °F 19.3 °F 30.2 °F 100% 29.92 in - West 15.0 mph 18.4 mph N/A   Overcast
2:39 AM 30.2 °F 19.8 °F 30.2 °F 100% 29.91 in - West 13.8 mph - N/A   Overcast
2:59 AM 30.2 °F 19.3 °F 30.2 °F 100% 29.92 in - West 15.0 mph 19.6 mph N/A   Overcast
3:19 AM 30.2 °F 19.3 °F 30.2 °F 100% 29.91 in - West 15.0 mph 19.6 mph N/A   Overcast
3:39 AM 30.2 °F 18.9 °F 30.2 °F 100% 29.91 in - West 16.1 mph 19.6 mph N/A   Overcast
3:59 AM 30.2 °F 18.5 °F 30.2 °F 100% 29.90 in - West 17.3 mph 23.0 mph N/A   Overcast
4:19 AM 30.2 °F 18.1 °F 30.2 °F 100% 29.89 in - West 18.4 mph 26.5 mph N/A   Overcast
4:39 AM 30.2 °F 18.9 °F 30.2 °F 100% 29.90 in 5.0 mi West 16.1 mph 23.0 mph N/A   Overcast
4:59 AM 30.2 °F 18.9 °F 30.2 °F 100% 29.90 in 4.0 mi West 16.1 mph 23.0 mph N/A   Overcast
5:19 AM 28.4 °F 18.0 °F 28.4 °F 100% 29.90 in - WNW 12.7 mph 21.9 mph N/A   Overcast
5:39 AM 28.4 °F 15.4 °F 28.4 °F 100% 29.89 in 10.0 mi WNW 19.6 mph 25.3 mph N/A   Overcast
6:01 AM 28.4 °F 15.1 °F 28.4 °F 100% 29.90 in 10.0 mi WNW 20.7 mph 29.9 mph N/A   Overcast
6:21 AM 28.4 °F 18.0 °F 28.4 °F 100% 29.90 in 10.0 mi West 12.7 mph 25.3 mph N/A   Overcast
6:40 AM 28.4 °F 17.0 °F 28.4 °F 100% 29.90 in 10.0 mi West 15.0 mph 21.9 mph N/A   Overcast
6:59 AM 28.4 °F 17.5 °F 28.4 °F 100% 29.90 in 10.0 mi WNW 13.8 mph 28.8 mph N/A   Overcast
7:19 AM 28.4 °F 18.5 °F 28.4 °F 100% 29.90 in 10.0 mi WNW 11.5 mph 20.7 mph N/A   Overcast
7:39 AM 28.4 °F 17.0 °F 28.4 °F 100% 29.89 in 10.0 mi West 15.0 mph 20.7 mph N/A   Overcast
7:59 AM 28.4 °F 18.5 °F 26.6 °F 93% 29.90 in 10.0 mi WNW 11.5 mph 23.0 mph N/A   Overcast
8:19 AM 28.4 °F 17.0 °F 26.6 °F 93% 29.89 in 10.0 mi WNW 15.0 mph 21.9 mph N/A   Overcast
8:39 AM 26.6 °F 14.3 °F 26.6 °F 100% 29.89 in 10.0 mi WNW 16.1 mph 23.0 mph N/A   Overcast
9:00 AM 28.4 °F 17.0 °F 26.6 °F 93% 29.90 in 10.0 mi West 15.0 mph 24.2 mph N/A   Overcast
9:19 AM 26.6 °F 15.2 °F 26.6 °F 100% 29.91 in 10.0 mi WNW 13.8 mph - N/A   Overcast
9:39 AM 26.6 °F 15.7 °F 26.6 °F 100% 29.92 in 10.0 mi WNW 12.7 mph 23.0 mph N/A   Overcast
9:59 AM 28.4 °F 18.5 °F 24.8 °F 86% 29.91 in 10.0 mi WNW 11.5 mph 17.3 mph N/A   Overcast
10:19 AM 28.4 °F 16.6 °F 26.6 °F 93% 29.91 in 10.0 mi West 16.1 mph 19.6 mph N/A   Overcast
10:39 AM 26.6 °F 16.2 °F 26.6 °F 100% 29.91 in 10.0 mi West 11.5 mph - N/A   Overcast
10:59 AM 26.6 °F 16.2 °F 26.6 °F 100% 29.91 in 10.0 mi West 11.5 mph - N/A   Overcast
11:20 AM 26.6 °F 13.4 °F 26.6 °F 100% 29.89 in 7.0 mi West 18.4 mph 23.0 mph N/A   Overcast
11:40 AM 26.6 °F 12.7 °F 24.8 °F 93% 29.87 in 10.0 mi West 20.7 mph 27.6 mph N/A   Overcast
11:59 AM 26.6 °F 13.8 °F 23.0 °F 86% 29.87 in 10.0 mi West 17.3 mph 27.6 mph N/A   Overcast
12:19 PM 26.6 °F 13.4 °F 21.2 °F 80% 29.86 in 10.0 mi West 18.4 mph 25.3 mph N/A   Overcast
12:41 PM 26.6 °F 13.1 °F 23.0 °F 86% 29.85 in 10.0 mi West 19.6 mph 26.5 mph N/A   Overcast
1:01 PM 26.6 °F 12.4 °F 21.2 °F 80% 29.85 in 10.0 mi West 21.9 mph 31.1 mph N/A   Overcast
1:19 PM 24.8 °F 10.3 °F 19.4 °F 80% 29.84 in 10.0 mi WNW 20.7 mph 31.1 mph N/A   Overcast
1:39 PM 24.8 °F 10.3 °F 21.2 °F 86% 29.85 in 10.0 mi West 20.7 mph 28.8 mph N/A   Overcast
1:59 PM 24.8 °F 11.5 °F 21.2 °F 86% 29.85 in 10.0 mi West 17.3 mph 25.3 mph N/A   Overcast
2:19 PM 24.8 °F 11.9 °F 21.2 °F 86% 29.85 in 10.0 mi West 16.1 mph 25.3 mph N/A   Overcast
2:39 PM 24.8 °F 11.1 °F 21.2 °F 86% 29.85 in 10.0 mi WNW 18.4 mph 24.2 mph N/A   Overcast
2:59 PM 24.8 °F 12.4 °F 19.4 °F 80% 29.85 in 10.0 mi WNW 15.0 mph 27.6 mph N/A   Overcast
3:19 PM 23.0 °F 10.1 °F 19.4 °F 86% 29.86 in 10.0 mi WNW 15.0 mph 23.0 mph N/A   Overcast
3:39 PM 23.0 °F 8.0 °F 17.6 °F 80% 29.86 in 10.0 mi West 20.7 mph 28.8 mph N/A   Overcast
3:59 PM 21.2 °F 6.4 °F 17.6 °F 86% 29.86 in 10.0 mi West 18.4 mph 25.3 mph N/A   Overcast
4:19 PM 21.2 °F 6.4 °F 17.6 °F 86% 29.86 in 10.0 mi West 18.4 mph 24.2 mph N/A   Overcast
4:39 PM 19.4 °F 3.2 °F 15.8 °F 86% 29.86 in 10.0 mi West 20.7 mph 27.6 mph N/A   Overcast
4:59 PM 17.6 °F 0.5 °F 15.8 °F 93% 29.86 in 10.0 mi West 21.9 mph 31.1 mph N/A   Overcast
5:20 PM 15.8 °F -1.5 °F 12.2 °F 86% 29.85 in 10.0 mi WNW 20.7 mph 33.4 mph N/A   Overcast
5:40 PM 14.0 °F -3.0 °F 10.4 °F 86% 29.86 in 10.0 mi WNW 18.4 mph 28.8 mph N/A   Overcast
6:00 PM 12.2 °F -6.7 °F 10.4 °F 92% 29.86 in 10.0 mi WNW 21.9 mph 29.9 mph N/A   Overcast
6:20 PM 12.2 °F -5.8 °F 8.6 °F 85% 29.85 in 10.0 mi WNW 19.6 mph 28.8 mph N/A   Overcast
6:40 PM 12.2 °F -6.7 °F 8.6 °F 85% 29.87 in 10.0 mi WNW 21.9 mph 32.2 mph N/A   Overcast
7:03 PM 12.2 °F -6.7 °F 8.6 °F 85% 29.86 in 10.0 mi WNW 21.9 mph 31.1 mph N/A   Overcast
7:20 PM 12.2 °F -7.5 °F 8.6 °F 85% 29.86 in 10.0 mi WNW 24.2 mph 29.9 mph N/A   Overcast
7:41 PM 12.2 °F -7.9 °F 8.6 °F 85% 29.86 in 10.0 mi WNW 25.3 mph 32.2 mph N/A   Overcast
7:59 PM 10.4 °F -9.5 °F 8.6 °F 92% 29.85 in 10.0 mi WNW 23.0 mph 34.5 mph N/A   Overcast
8:19 PM 10.4 °F -9.9 °F 8.6 °F 92% 29.84 in 10.0 mi WNW 24.2 mph 31.1 mph N/A   Overcast
8:39 PM 10.4 °F -9.5 °F 8.6 °F 92% 29.83 in 10.0 mi WNW 23.0 mph 32.2 mph N/A   Overcast
9:01 PM 10.4 °F -9.1 °F 8.6 °F 92% 29.83 in 10.0 mi WNW 21.9 mph 31.1 mph N/A   Overcast
9:21 PM 10.4 °F -9.9 °F 8.6 °F 92% 29.82 in 10.0 mi WNW 24.2 mph 38.0 mph N/A   Overcast
9:41 PM 10.4 °F -10.7 °F 8.6 °F 92% 29.82 in 10.0 mi WNW 26.5 mph 34.5 mph N/A   Overcast
9:59 PM 10.4 °F -9.1 °F 8.6 °F 92% 29.83 in 10.0 mi WNW 21.9 mph 38.0 mph N/A   Overcast
10:19 PM 10.4 °F -9.9 °F 8.6 °F 92% 29.81 in 10.0 mi WNW 24.2 mph 34.5 mph N/A   Overcast
10:39 PM 10.4 °F -9.9 °F 8.6 °F 92% 29.81 in 7.0 mi WNW 24.2 mph 39.1 mph N/A Snow Light Snow
10:59 PM 10.4 °F -9.1 °F 8.6 °F 92% 29.82 in 10.0 mi WNW 21.9 mph 31.1 mph N/A   Overcast
11:19 PM 10.4 °F -9.9 °F 8.6 °F 92% 29.81 in 7.0 mi WNW 24.2 mph 32.2 mph N/A Snow Light Snow
11:39 PM 10.4 °F -9.5 °F 8.6 °F 92% 29.81 in 7.0 mi WNW 23.0 mph 34.5 mph N/A Snow Light Snow
11:59 PM 10.4 °F -11.0 °F 10.4 °F 100% 29.80 in 3.0 mi WNW 27.6 mph 34.5 mph N/A Snow Light Snow